sat.trackr.live / text

‹ back to catalog

STARLINK-31413

NORAD 59353 · 2024-060F

PAYLOAD ACTIVE UNKNOWN

§ Identity

Operator
Country
US
Launch date
2024-03-31
Launch site
AFETR
Launch vehicle
Mass (kg)
RCS (m²)

Purposes: comms

External: N2YO · Heavens-Above · Gunter

§ Orbital elements

Epoch: 2026-09-20T15:49:44.631840Z

Period
94.27 min
Inclination
43.0046°
Eccentricity
0.0001421
Mean motion
15.27578472 rev/d
Perigee alt
482.1 km
Apogee alt
484.0 km
Semi-major
6,861.2 km
B*
2.0011e-5
RAAN
238.5416°
Arg perigee
276.2559°
Mean anomaly
83.8131°
Rev number
13,988

§ Raw data

STARLINK-314131 59353U 24060F   26263.65954435  .00000288  00000+0  20011-4 0  99922 59353  43.0046 238.5416 0001421 276.2559  83.8131 15.27578472139888

JSON: /api/v1/satellites/59353 · /tle

For live sub-satellite position, see the globe view (requires WebGL).

§ Visibility from observer

Set your observer location to see the next 7 days of passes ≥ 10°. The values pass through the URL so the page stays shareable.

No JS? Fill the form by hand. The geolocation button needs JavaScript.